Location: Caltech
(34.1382°N, 118.1253°W)
Time: 07:41:55
(UTC-07:00)

Oscar 11 - Visible Passes

Search period start: 24 July 2016 00:00
Search period end: 03 August 2016 00:00
Orbit: 615 x 626 km, 97.7° (Epoch: 23 July)

Date Brightness Start Highest point End Pass type
(mag) Time Alt. Az. Time Alt. Az. Time Alt. Az.
24 Jul 7.6 20:59:36 16° SE 21:02:44 41° ENE 21:06:51 10° N visible
24 Jul 9.7 22:36:49 10° WSW 22:39:00 14° W 22:41:13 10° WNW visible
25 Jul 7.0 21:17:18 21° SSE 21:20:07 68° ENE 21:24:27 10° N visible
26 Jul 7.2 21:34:58 24° S 21:37:31 74° WSW 21:41:53 10° NNW visible
27 Jul 8.0 21:52:39 23° SSW 21:54:59 44° W 21:59:09 10° NNW visible
28 Jul 8.5 20:33:16 10° ESE 20:36:32 21° ENE 20:39:48 10° NNE visible
28 Jul 8.8 22:10:20 19° SW 22:12:28 27° W 22:16:11 10° NW visible
29 Jul 7.9 20:50:51 15° SE 20:53:50 33° ENE 20:57:44 10° N visible
29 Jul 9.4 22:28:01 13° SW 22:30:00 17° W 22:32:53 10° NW visible
30 Jul 7.3 21:08:31 21° SE 21:11:12 53° ENE 21:15:26 10° N visible
30 Jul 9.9 22:46:49 10° WSW 22:47:35 10° W 22:48:21 10° W visible
31 Jul 7.0 21:26:13 27° SSE 21:28:35 87° ENE 21:32:57 10° N visible
01 Aug 7.6 21:43:55 28° SSW 21:46:01 56° W 21:50:17 10° NNW visible
02 Aug 8.8 20:24:51 10° ESE 20:27:40 17° ENE 20:30:28 10° NNE visible
02 Aug 8.4 22:01:36 24° SW 22:03:29 34° W 22:07:27 10° NNW visible
